Regional Weather Roundup
Issued by NWS

Current Version | Previous Version | Text Only | Print | Product List | Glossary On
Versions: 1 2 3 4 5 6 7 8 9 10 11 12 13 14 15 16 17 18 19 20 21 22 23 24 25 26 27 28 29 30 31 32 33 34 35 36 37 38 39 40 41 42 43 44 45 46 47 48 49 50
000
ASHW40 PHFO 311830
RWRHI

WEATHER ROUNDUP FOR HAWAII
NATIONAL WEATHER SERVICE HONOLULU HI
800 AM HST MON AUG 31 2015

THIS IS AN AUTOMATED REPORT THAT HAS NOT BEEN QUALITY CONTROLLED.

NOTE..."FAIR" INDICATES FEW OR NO CLOUDS BELOW 12,000 FEET WITH NO
SIGNIFICANT WEATHER AND/OR OBSTRUCTIONS TO VISIBILITY.

* - THESE SITES REPORT LIMITED FIELDS

HIZ001>004-311900-
KAUAI-NIIHAU-

CITY           SKY/WX    TMP DP  RH WIND       PRES   REMARKS
LIHUE APT      TSTM      77  77 100 NE15      29.94R FOG
PORT ALLEN*    NOT AVBL
POIPU*           N/A     79 N/A N/A NE6G12      N/A
PRINCEVILLE*     N/A     79 N/A N/A MISG        N/A
KOKOLE POINT*  NOT AVBL
MOLOAA DAIRY*    N/A     81  77  89 NE3G12      N/A
WAIMEA HTS*    NOT AVBL
PUU OPAE*      NOT AVBL
PUU LUA*       NOT AVBL
MAKAHA RIDGE*    N/A     79  73  83 NE1         N/A
$$

HIZ005>011-311900-
OAHU-

CITY           SKY/WX    TMP DP  RH WIND       PRES   REMARKS
HONOLULU       MOSUNNY   83  75  77 NE5       29.90R HX  90
KALAELOA       MOSUNNY   83  73  72 VRB3      29.92R
KANEOHE MCB    MOSUNNY   82  76  81 NE10      29.89R
WHEELER FIELD  FAIR      80  73  79 CALM      29.92R
BELLOWS*         N/A    N/A N/A N/A NE8G16      N/A
KAHUKU*          N/A    N/A N/A N/A NE7G16      N/A
WHEELER*       NOT AVBL
WAIANAE HARBOR NOT AVBL
DILLINGHAM*      N/A     73  66  78 MISG        N/A
KAHUKU TRN*      N/A     75  72  88 E7G13       N/A
KAWAILOA*        N/A     75  72  88 E3G10       N/A
KII*             N/A     82  77  83 E12G17      N/A  HX  91
MAKUA RANGE*     N/A     88  75  66 SW2         N/A  HX  97
OAHU FOREST NW NOT AVBL
SCHOFIELD BRK*   N/A     72  64  78 NW1         N/A
SCHOFIELD S*   NOT AVBL
WAIANAE VLY*   NOT AVBL
KUAOKALA*      NOT AVBL
HONOULIUULI*   NOT AVBL
MOKUOLOE IS*     N/A    N/A N/A N/A MISG        N/A
PALEHUA*       NOT AVBL
WAIAWA PHB*    NOT AVBL
$$

HIZ012>013-311900-
MOLOKAI-

CITY           SKY/WX    TMP DP  RH WIND       PRES   REMARKS
MOLOKAI AIRPT  MOSUNNY   79  76  90 NE8       29.93R
KALAUPAPA      NOT AVBL
MAKAPULAPAI*   NOT AVBL
MOLOKAI 1*     NOT AVBL
PUU ALII*        N/A     66  66 100 CALM        N/A
$$

HIZ016-311900-
KAHOOLAWE-

CITY           SKY/WX    TMP DP  RH WIND       PRES   REMARKS
KAHOOLAWE*     NOT AVBL
HAKIOAWA*        N/A     77  74  90 MISG      30.34R
HONOKANAIA*      N/A     81  75  83 NW7G18    29.82R
KANELOA*         N/A     79  75  89 N21G29    29.94R
KEALIALALO*      N/A     82  75  78 NW3G10    29.91R
LUA MAKIKA*    NOT AVBL
$$

HIZ014>015-311900-
LANAI-

CITY           SKY/WX    TMP DP  RH WIND       PRES   REMARKS
LANAI CITY     FAIR      78  73  84 NE16      29.96R
LANAI 1*       NOT AVBL
$$

HIZ017>028-311900-
MAUI-

CITY           SKY/WX    TMP DP  RH WIND       PRES   REMARKS
KAHULUI        MOSUNNY   83  74  74 N12       29.91R
KAPALUA-W MAUI LGT RAIN  81  75  83 NE12      29.91R
HANA AIRPORT   SUNNY     82  77  83 W7        29.93S HX  91
HANA*            N/A     82 N/A N/A NW6         N/A
HALEAKALA SUMM   N/A     50  48  93 NE10G26     N/A
MAALAEA BAY*   NOT AVBL
HALEAKALA*     NOT AVBL
KAUPO GAP*     NOT AVBL
KULA 1*          N/A     62  56  81 NE2         N/A
$$

HIZ023>026-311900-
BIG ISLAND OF HAWAII COAST AND LOWER SLOPES-

CITY           SKY/WX    TMP DP  RH WIND       PRES   REMARKS
KAILUA KONA    SUNNY     84  74  71 CALM      29.87R HX  91
HILO           MOSUNNY   84  74  71 N7        29.87R HX  91
HONOKAA*       NOT AVBL
KAWAIHAE MWT*    N/A     90 N/A N/A N1          N/A
KAWAIHAE*        N/A     84 N/A N/A W3          N/A
SOUTH POINT*     N/A     77 N/A N/A N1          N/A
UPOLU AIRPORT*   N/A    N/A N/A N/A E8          N/A
KAMUELA*       NOT AVBL
HAKALAU*         N/A     67  57  70 NE8G14      N/A
KALOKO-HONOKO*   N/A     86  75  70 W1        29.87R HX  95
PALI 2*          N/A     79  66  65 S2          N/A
KEALAKOMO*     NOT AVBL
KAUPULEHU*     NOT AVBL
KAPAPALA*        N/A     76  70  82 NW3         N/A
LOWER KAHUKU*    N/A     66  66 100 NE1         N/A
PUHE CS*         N/A     84  72  65 VRB1        N/A
PUHO CS*         N/A     79  67  66 NE3         N/A
PTA KEAMUKU*     N/A     73  64  73 CALM        N/A
WAIKOLOA*      NOT AVBL
$$

HIZ027>028-311900-
BIG ISLAND OF HAWAII INTERIOR AND SUMMMITS-

CITY           SKY/WX    TMP DP  RH WIND       PRES   REMARKS
BRADSHAW FIELD SUNNY     65  55  69 W2        30.29R
MK VISITOR CEN   N/A     57  45  62 SE7         N/A
MAUNA KEA*       N/A     37  32  81 W1          N/A
MAUNA LOA*       N/A     48  37  66 MISG        N/A
MAUNA LOA 1*   NOT AVBL
PTA KIPUKA*      N/A     70  59  68 SW1         N/A
PTA RANGE 17*    N/A     54  39  58 E3          N/A
PTA WEST*        N/A     73  55  53 SW1G12      N/A
NENE CABIN*      N/A     64  48  55 NE2         N/A
AHUMOA*        NOT AVBL
PTA PORTABLE*  NOT AVBL
PUU MALI*        N/A     66  55  68 NE6         N/A
$$

HIC003-311900-
NORTHWEST ISLANDS-

CITY           SKY/WX    TMP DP  RH WIND       PRES   REMARKS
MIDWAY ISLAND  PTCLDY    82  79  89 SE8       29.93R FOG     HX  93
MIDWAY NOS*    NOT AVBL
FRENCH FRIGATE NOT AVBL
$$

PHZ110>124-180-311900-
BUOY REPORTS

STATION/POSITION TIME  TEMP    WIND        PRES    WAVE   SWELL
                       AIR SEA DIR/SP/G            HT/PER HT/DIR
                 (UTC) (F)     (DEG/KT/KT) (MB)    (FT/S) (FT/D)
BUOY 51001       1753   81 82   80/ 14/ 19 1015.3
BUOY 51101       1800   82 82  100/ 16/ 17 1014.5R   6/ 8   5/ 40
BUOY 51100       NOT AVBL
BUOY 51002       1800   83 83   20/  6/  8 1012.1R   6/13   5/250
BUOY 51003       1800   83 84   40/  6/  8 1012.4R   6/12   7/ 90
BUOY 51004       1708   82 83  280/  8/ 12 1010.8   11/11  11/ 40
BARBERS PT BUOY  NOT AVBL
WAIMEA BAY BUOY  1800      82                N/A     6/ 9   2/ 20
KAILUA BAY BUOY  1800      83                N/A     6/11   3/ 40
LANAI BUOY       NOT AVBL
BARBERS PT 2     1800      83                N/A     4/11   3/200
PAUWELA MAUI     1800      82                N/A     7/14   5/100
HILO             NOT AVBL
KANEOHE BAY BUOY 1800      82                N/A     6/ 8   2/ 20
HANALEI KAUAI    1800      82                N/A     7/11   3/ 30
KAHULUI HARBOR   1800   81 84  350/  8/  9 1012.6R
HONOLULU HARBOR  1800   82 83  250/  3/  4 1012.8R
KILO NALU        NOT AVBL
HILO HARBOR      1800   82 82   10/ 19/ 21 1011.0R
MOKUOLOE         1800      85                N/A
NAWILIWILI       1800   77 85   40/ 10/ 16 1013.6R
WHOTS BUOY       NOT AVBL
BUOY 51028       NOT AVBL
$$

......................KEY........................................
  SKY/WX - SKY CONDITIONS/PRESENT WEATHER
  TMP    - TEMPERATURE IN FAHRENHEIT
  DWPT   - DEWPOINT IN FAHRENHEIT
  RH     - RELATIVE HUMIDITY IN PERCENT
  WIND   - DIRECTION AND SPEED /MPH FOR ISLANDS...KTS FOR BUOYS/
  PRES   - MEAN SEA LEVEL PRESSURE IN INCHES OF HG
  VSB    - VISIBILITY IN MILES
  HX     - HEAT INDEX
  WCI    - WIND CHILL INDEX
  VRB    - VARIABLE WIND DIRECTION
  N/A    - NOT AVAILABLE


USA.gov is the U.S. government's official web portal to all federal, state and local government web resources and services.